Regional Weather Roundup
Issued by NWS

Home | Current Version | Previous Version | Text Only | Print | Product List | Glossary On
Versions: 1 2 3 4 5 6 7 8 9 10 11 12 13 14 15 16 17 18 19 20 21 22 23 24 25 26 27 28 29 30 31 32 33 34 35 36 37 38 39 40 41 42 43 44 45 46 47 48 49 50
555
ASHW40 PHFO 071243
RWRHI

WEATHER ROUNDUP FOR HAWAII
NATIONAL WEATHER SERVICE HONOLULU HI
200 AM HST WED DEC 07 2016

THIS IS AN AUTOMATED REPORT THAT HAS NOT BEEN QUALITY CONTROLLED.

NOTE..."FAIR" INDICATES FEW OR NO CLOUDS BELOW 12,000 FEET WITH NO
SIGNIFICANT WEATHER AND/OR OBSTRUCTIONS TO VISIBILITY.

* - THESE SITES REPORT LIMITED FIELDS

HIZ001>004-071300-
KAUAI-NIIHAU-

CITY           SKY/WX    TMP DP  RH WIND       PRES   REMARKS
LIHUE APT      PTCLDY    69  65  86 W6        29.98F
PORT ALLEN*    NOT AVBL
POIPU*           N/A     68 N/A N/A N2          N/A
PRINCEVILLE*     N/A     66 N/A N/A S3          N/A
KOKOLE POINT*  NOT AVBL
MOLOAA DAIRY*    N/A     68  66  94 CALM        N/A
WAIMEA HTS*      N/A     72  61  68 N3          N/A
PUU OPAE*      NOT AVBL
PUU LUA*       NOT AVBL
MAKAHA RIDGE*    N/A     66  59  77 NE1         N/A
$$

HIZ005>011-071300-
OAHU-

CITY           SKY/WX    TMP DP  RH WIND       PRES   REMARKS
HONOLULU       PTCLDY    70  67  90 NW6       29.96F
KALAELOA       CLEAR     69  65  86 NE3       29.98F
KANEOHE MCB    NOT AVBL
WHEELER FIELD  PTCLDY    66  66  99 NW3       29.97F
BELLOWS*         N/A    N/A N/A N/A NE8         N/A
KAHUKU*          N/A    N/A N/A N/A E1          N/A
WHEELER*         N/A    N/A N/A N/A N3          N/A
WAIANAE HARBOR   N/A    N/A N/A N/A NE3         N/A
DILLINGHAM*      N/A     81  77  89 MISG        N/A
KAHUKU TRN*      N/A     70  68  94 NW1         N/A
KAWAILOA*        N/A     70  64  83 E5          N/A
KII*             N/A     72  68  88 SE3         N/A
MAKUA RANGE*     N/A     81  75  83 NW7         N/A
OAHU FOREST NW   N/A     68  63  83 E9G21       N/A
SCHOFIELD BRK*   N/A     64  63  94 MISG        N/A
SCHOFIELD S*   NOT AVBL
WAIANAE VLY*     N/A     66  63  88 NW5         N/A
KUAOKALA*        N/A     72  66  83 CALM        N/A
HONOULIUULI*   NOT AVBL
MOKUOLOE IS*   NOT AVBL
PALEHUA*         N/A     64  63  94 NE6G12      N/A
WAIAWA PHB*    NOT AVBL
$$

HIZ012>013-071300-
MOLOKAI-

CITY           SKY/WX    TMP DP  RH WIND       PRES   REMARKS
MOLOKAI AIRPT    N/A     73  68  84 NE3       29.98F
KALAUPAPA      NOT AVBL
MAKAPULAPAI*     N/A     73  72  94 SE2         N/A
MOLOKAI 1*       N/A     64  63  94 CALM        N/A
PUU ALII*        N/A     60  60 100 E1          N/A
$$

HIZ016-071300-
KAHOOLAWE-

CITY           SKY/WX    TMP DP  RH WIND       PRES   REMARKS
KAHOOLAWE*     NOT AVBL
HAKIOAWA*        N/A     70  70  99 MISG      30.38F
HONOKANAIA*      N/A     73  68  83 N3G9      29.91S
KANELOA*         N/A     72  70  94 NE8G14    30.03S
KEALIALALO*    NOT AVBL
LUA MAKIKA*    NOT AVBL
$$

HIZ014>015-071300-
LANAI-

CITY           SKY/WX    TMP DP  RH WIND       PRES   REMARKS
LANAI CITY     MOCLDY    69  67  93 NE7       30.02F
LANAI 1*       NOT AVBL
$$

HIZ017>028-071300-
MAUI-

CITY           SKY/WX    TMP DP  RH WIND       PRES   REMARKS
KAHULUI        PTCLDY    71  68  90 SE7       29.96S
KAPALUA-W MAUI NOT AVBL
HANA AIRPORT   CLOUDY    72  72 100 S2        29.98F FOG
HANA*            N/A     73 N/A N/A S2          N/A
HALEAKALA SUMM   N/A     43  43 100 S6          N/A
MAALAEA BAY*     N/A     72 N/A N/A N5          N/A
HALEAKALA*     NOT AVBL
KAUPO GAP*       N/A     77  73  88 NW2G12      N/A
KULA 1*          N/A     55  53  92 SE7         N/A
$$

HIZ023>026-071300-
BIG ISLAND OF HAWAII COAST AND LOWER SLOPES-

CITY           SKY/WX    TMP DP  RH WIND       PRES   REMARKS
KAILUA KONA    CLEAR     75  70  84 E3        29.94F
HILO           PTCLDY    69  66  90 SW6       29.96F
HONOKAA*         N/A     66 N/A N/A VRB1        N/A
KAWAIHAE MWT*    N/A     75 N/A N/A SE1         N/A
KAWAIHAE*        N/A     75 N/A N/A NE1       29.95S
SOUTH POINT*     N/A     70 N/A N/A NW5         N/A
UPOLU AIRPORT* NOT AVBL
KAMUELA*       PTSUNNY   59  57  94 E5        30.06F
HAKALAU*         N/A     52  49  89 SW5         N/A
KALOKO-HONOKO*   N/A     72  68  88 NE2       29.93F
PALI 2*          N/A    N/A N/A N/A S3          N/A
KEALAKOMO*       N/A     72  68  88 W1          N/A
KAUPULEHU*       N/A     70  63  78 SE6         N/A
KAPAPALA*      NOT AVBL
LOWER KAHUKU*    N/A     59  57  94 N2          N/A
PUHE CS*         N/A     73  64  73 NE2         N/A
PUHO CS*         N/A     70  64  82 E2          N/A
PTA KEAMUKU*     N/A     57  55  94 CALM        N/A
WAIKOLOA*        N/A     68  63  83 SE5G10      N/A
$$

HIZ027>028-071300-
BIG ISLAND OF HAWAII INTERIOR AND SUMMMITS-

CITY           SKY/WX    TMP DP  RH WIND       PRES   REMARKS
BRADSHAW FIELD CLOUDY    51  49  93 CALM      30.30F
MK VISITOR CEN   N/A     48  36  61 NE3         N/A
MAUNA KEA*       N/A     32  32 100 SW39        N/A  WCI  16
MAUNA LOA*       N/A     39  32  75 MISG        N/A
MAUNA LOA 1*   NOT AVBL
PTA KIPUKA*      N/A     52  52 100 E3          N/A
PTA RANGE 17*  NOT AVBL
PTA WEST*        N/A     57  54  88 SE10        N/A
NENE CABIN*      N/A     48  46  93 N5          N/A
AHUMOA*          N/A     52  48  85 NE5         N/A
PTA PORTABLE*  NOT AVBL
PUU MALI*        N/A     54  48  82 SW9         N/A
$$

HIC003-071300-
NORTHWEST ISLANDS-

CITY           SKY/WX    TMP DP  RH WIND       PRES   REMARKS
MIDWAY ISLAND  PTCLDY    70  61  73 N9        30.00S
MIDWAY NOS*      N/A     72 N/A N/A MISG      29.97S
FRENCH FRIGATE NOT AVBL
$$

PHZ110>124-180-071300-
BUOY REPORTS

STATION/POSITION TIME  TEMP    WIND        PRES    WAVE   SWELL
                       AIR SEA DIR/SP/G            HT/PER HT/DIR
                 (UTC) (F)     (DEG/KT/KT) (MB)    (FT/S) (FT/D)
BUOY 51001       1220   75 77  170/ 10/ 14 1014.4
BUOY 51101       1150   75 77  210/  8/ 12 1015.2F   8/16   8/300
BUOY 51100       NOT AVBL
BUOY 51002       1220   78 78   70/ 10/ 12 1012.5
BUOY 51003       1150   78 79  100/  8/ 10 1013.5F   6/ 9   5/ 90
BUOY 51004       1150   76 79  100/ 10/ 12 1013.8F   7/ 9   7/ 80
BARBERS PT BUOY  NOT AVBL
WAIMEA BAY BUOY  NOT AVBL
KAILUA BAY BUOY  1204      78                N/A     7/12   5/ 10
LANAI BUOY       1215      78                N/A     3/13   2/210
BARBERS PT 2     1209      79                N/A     3/17   2/310
PAUWELA MAUI     1209      78                N/A     6/11   3/360
HILO             1212      78                N/A     6/ 9   3
KANEOHE BAY BUOY 1206      77                N/A     6/11   3/ 10
HANALEI KAUAI    1222      77                N/A     7/11   5
KAHULUI HARBOR   1212   75 77  350/  9/ 12 1014.3
HONOLULU HARBOR  1212   73 78   CALM  /  1 1015.1
KILO NALU        NOT AVBL
HILO HARBOR      1212   69 76  200/  5/  6 1013.9
MOKUOLOE         1136   72     200/  1/  1   N/A
NAWILIWILI       1218      78                N/A
WHOTS BUOY       NOT AVBL
BUOY 51028       NOT AVBL
$$

......................KEY........................................
  SKY/WX - SKY CONDITIONS/PRESENT WEATHER
  TMP    - TEMPERATURE IN FAHRENHEIT
  DWPT   - DEWPOINT IN FAHRENHEIT
  RH     - RELATIVE HUMIDITY IN PERCENT
  WIND   - DIRECTION AND SPEED /MPH FOR ISLANDS...KTS FOR BUOYS/
  PRES   - MEAN SEA LEVEL PRESSURE IN INCHES OF HG
  VSB    - VISIBILITY IN MILES
  HX     - HEAT INDEX
  WCI    - WIND CHILL INDEX
  VRB    - VARIABLE WIND DIRECTION
  N/A    - NOT AVAILABLE




USA.gov is the U.S. government's official web portal to all federal, state and local government web resources and services.